Location: Splawn
(30.9202°N, 96.9858°W)
Time: 21:59:22
(UTC+00:00)

A-11 Canister half - Visible Passes

Search period start: 17 February 2020 00:00
Search period end: 27 February 2020 00:00
Orbit: 1525 x 1684 km, 47.3° (Epoch: 17 February)

Date Brightness Start Highest point End Pass type
(mag) Time Alt. Az. Time Alt. Az. Time Alt. Az.
17 Feb 9.1 00:38:14 10° NW 00:47:38 86° SW 00:57:17 10° SE visible
17 Feb 10.8 02:45:04 10° W 02:51:48 22° SW 02:58:42 10° S visible
18 Feb 10.8 02:23:13 10° WNW 02:30:13 24° SW 02:37:23 10° S visible
19 Feb 10.8 02:01:22 10° WNW 02:08:37 26° SW 02:16:03 10° S visible
20 Feb 10.8 01:39:34 10° WNW 01:47:02 27° SW 01:54:41 10° S visible
21 Feb 10.8 01:17:46 10° WNW 01:25:27 29° SW 01:33:18 10° S visible
22 Feb 10.8 00:56:00 10° WNW 01:03:51 31° SW 01:11:54 10° S visible
23 Feb 10.8 00:34:14 10° WNW 00:42:16 33° SW 00:50:28 10° S visible
